EW9555 Weather Reports


time (UTC)temp
C
wind
direction
speed
KPH
gust
KPH
rain 1hr
cm
rain 24hr
cm
rain mn
cm
humidity
%
barometer
mb
20190322210038 17 307 0.0 14.5 0.00 0.08 0.00 32 1007.2
20190322204541 18 228 3.2 12.9 0.00 0.08 0.00 31 1007.3
20190322203032 17 271 0.0 11.3 0.00 0.08 0.00 34 1007.2
20190322201533 17 212 3.2 12.9 0.00 0.08 0.00 35 1007.3
20190322200046 18 224 3.2 8.0 0.00 0.08 0.00 34 1007.5
20190322194629 18 246 1.6 9.7 0.00 0.08 0.00 35 1007.6
20190322193047 17 125 4.8 14.5 0.00 0.08 0.00 32 1007.8
20190322191520 17 279 1.6 8.0 0.00 0.08 0.00 36 1007.9
20190322190043 17 188 4.8 16.1 0.00 0.08 0.00 34 1008.0
20190322184519 17 220 1.6 8.0 0.00 0.08 0.00 33 1008.3
20190322183022 17 288 0.0 14.5 0.00 0.08 0.00 35 1008.5
20190322181525 17 250 3.2 16.1 0.00 0.08 0.00 34 1008.7
20190322180026 17 202 1.6 12.9 0.00 0.08 0.00 36 1009.3
20190322174529 16 49 1.6 9.7 0.00 0.08 0.00 36 1009.7
20190322173014 16 322 3.2 8.0 0.00 0.08 0.00 38 1010.0
20190322171707 16 253 1.6 8.0 0.00 0.08 0.00 37 1010.2
20190322170148 16 150 0.0 14.5 0.00 0.08 0.00 38 1010.1
20190322164654 15 242 1.6 14.5 0.00 0.10 0.00 40 1010.3
20190322163218 15 247 1.6 9.7 0.00 0.10 0.00 40 1010.4
20190322161649 15 269 3.2 17.7 0.00 0.10 0.00 40 1010.7
20190322160208 15 255 0.0 6.4 0.00 0.10 0.00 42 1010.7
20190322154643 14 240 1.6 8.0 0.00 0.10 0.00 43 1010.7
20190322153157 13 270 3.2 16.1 0.00 0.10 0.00 46 1010.7
20190322151659 13 275 1.6 9.7 0.00 0.10 0.00 47 1010.7
20190322150247 13 160 1.6 22.5 0.00 0.10 0.00 48 1010.9
20190322144624 12 289 1.6 14.5 0.00 0.10 0.00 48 1010.6
20190322143129 12 212 1.6 9.7 0.00 0.10 0.00 53 1010.7
20190322141628 11 8 3.2 16.1 0.00 0.10 0.00 53 1010.5
20190322140140 11 185 1.6 14.5 0.00 0.18 0.00 58 1010.6
20190322134629 10 253 1.6 14.5 0.00 0.18 0.00 64 1010.5
20190322133053 9 232 0.0 4.8 0.00 0.18 0.00 69 1010.4
20190322131519 8 208 0.0 4.8 0.00 0.18 0.00 72 1010.3
20190322130021 7 291 0.0 4.8 0.00 0.25 0.00 77 1010.4
20190322124536 7 148 0.0 3.2 0.00 0.25 0.00 78 1010.4
20190322123014 6 215 0.0 0.0 0.00 0.25 0.00 82 1010.3
20190322121513 5 220 0.0 1.6 0.00 0.25 0.00 84 1010.1
20190322120010 5 256 0.0 3.2 0.00 0.58 0.00 84 1009.9
20190322114510 5 233 0.0 0.0 0.00 0.58 0.00 85 1009.9
20190322113004 5 226 0.0 0.0 0.00 0.58 0.00 85 1009.8
20190322111623 5 248 0.0 0.0 0.00 0.58 0.00 86 1009.7
20190322110125 5 247 0.0 6.4 0.00 0.58 0.00 85 1009.6
20190322104654 5 249 0.0 1.6 0.00 0.89 0.00 85 1009.6
20190322103205 5 282 0.0 0.0 0.00 0.89 0.00 85 1009.2
20190322101712 5 258 0.0 0.0 0.00 0.89 0.00 84 1009.0
20190322100102 5 253 0.0 0.0 0.00 1.27 0.00 85 1009.0
20190322094640 5 245 0.0 0.0 0.00 1.27 0.00 84 1008.7
20190322093128 5 236 0.0 0.0 0.00 1.27 0.00 86 1008.6
20190322091637 5 251 0.0 0.0 0.00 1.27 0.00 85 1008.5
20190322090142 5 246 0.0 0.0 0.00 1.91 0.00 85 1008.5
20190322084615 5 245 0.0 0.0 0.00 1.91 0.00 85 1008.4
20190322083219 5 281 0.0 0.0 0.00 1.91 0.00 85 1008.4
20190322081649 5 282 0.0 0.0 0.00 1.91 0.00 85 1008.4
20190322080135 5 282 0.0 0.0 0.00 2.44 0.00 85 1008.4
20190322074648 5 351 0.0 0.0 0.00 2.44 0.00 85 1008.5
20190322073122 6 263 0.0 0.0 0.00 2.44 0.00 85 1008.6
20190322071605 6 279 0.0 0.0 0.00 2.44 0.00 85 1008.8
20190322070112 6 252 0.0 0.0 0.00 2.57 0.00 85 1008.7
20190322064621 6 251 0.0 0.0 0.00 2.57 0.00 86 1009.0
20190322063034 6 254 0.0 0.0 0.00 2.57 0.00 86 1009.0
20190322061549 6 255 0.0 0.0 0.00 2.57 0.00 86 1008.9
20190322060116 6 254 0.0 0.0 0.00 2.62 0.00 85 1008.8
20190322053105 7 244 0.0 0.0 0.00 2.62 0.00 86 1008.9
20190322051558 7 243 0.0 0.0 0.00 2.62 0.00 86 1008.9
20190322050037 7 243 0.0 1.6 0.00 2.62 0.00 87 1008.8
20190322044523 7 231 0.0 0.0 0.00 2.62 0.00 87 1008.9
20190322043035 7 231 0.0 1.6 0.00 2.62 0.00 87 1008.9
20190322041523 7 249 0.0 0.0 0.00 2.62 0.00 86 1008.8
20190322040030 7 249 0.0 0.0 0.00 2.62 2.62 85 1008.8
20190322034515 8 249 0.0 0.0 0.00 2.62 2.62 84 1008.8
20190322033039 8 249 0.0 0.0 0.00 2.62 2.62 84 1008.8
20190322031524 8 249 0.0 0.0 0.00 2.62 2.62 83 1008.7
20190322030015 8 210 0.0 1.6 0.00 2.62 2.62 83 1008.6
20190322024517 8 295 0.0 1.6 0.00 2.62 2.62 83 1008.4
20190322023020 8 241 0.0 0.0 0.00 2.62 2.62 83 1008.4
20190322021510 8 248 0.0 0.0 0.00 2.62 2.62 82 1008.4
20190322020014 8 250 0.0 0.0 0.00 2.62 2.62 82 1008.3
20190322014511 9 250 0.0 0.0 0.00 2.62 2.62 80 1008.3
20190322013011 9 250 0.0 0.0 0.00 2.62 2.62 82 1008.2
20190322011513 9 245 0.0 0.0 0.00 2.62 2.62 82 1008.2
20190322010020 9 351 0.0 0.0 0.00 2.62 2.62 85 1008.2
20190322004533 8 351 0.0 0.0 0.00 2.62 2.62 85 1008.2
20190322003015 9 342 0.0 0.0 0.00 2.62 2.62 82 1008.0
20190322001546 10 233 0.0 0.0 0.00 2.62 2.62 81 1007.9
20190322000009 10 234 0.0 0.0 0.00 2.62 2.62 81 1007.7
20190321234521 10 234 0.0 0.0 0.00 2.62 2.62 82 1007.6
20190321233005 11 234 0.0 0.0 0.00 2.62 2.62 83 1007.4
20190321231522 11 234 0.0 0.0 0.00 2.62 2.62 85 1007.5
20190321230012 11 234 0.0 0.0 0.00 2.62 2.62 85 1007.3
20190321224507 11 234 0.0 0.0 0.00 2.62 2.62 85 1007.4
20190321223213 11 234 0.0 0.0 0.03 2.62 2.62 85 1007.2
20190321223003 11 234 0.0 0.0 0.03 2.62 2.62 86 1007.4
20190321221659 11 234 0.0 0.0 0.08 2.62 2.62 85 1007.3
20190321220201 11 234 0.0 0.0 0.08 2.62 2.62 85 1007.2
20190321214645 12 234 0.0 0.0 0.08 2.62 2.62 84 1007.3
20190321213212 13 234 0.0 0.0 0.05 2.59 2.59 81 1007.3
20190321211644 14 5 0.0 0.0 0.00 2.54 2.54 70 1007.3